This is the latest recevied weather packets stored in our database for station/object DL1BWU. If no packets are shown the sender has not sent any weather packets the latest 10 day(s).
| Time | Temp. | Humidity | Pressure | Rain* | Wind** | Luminosity | Snow |
|---|---|---|---|---|---|---|---|
| 1777658119 | 20° C | 40% | 1025.3 hPa | 0 mm | - | - | - |
| 1777657519 | 20.56° C | 39% | 1025.3 hPa | 0 mm | - | - | - |
| 1777656919 | 21.11° C | 38% | 1025.3 hPa | 0 mm | - | - | - |
| 1777656319 | 21.67° C | 38% | 1025.3 hPa | 0 mm | - | - | - |
| 1777655719 | 21.67° C | 38% | 1025.3 hPa | 0 mm | - | - | - |
| 1777655119 | 21.67° C | 36% | 1025.3 hPa | 0 mm | - | - | - |
| 1777654519 | 21.67° C | 35% | 1025.3 hPa | 0 mm | - | - | - |
| 1777653919 | 22.22° C | 35% | 1025.5 hPa | 0 mm | - | - | - |
| 1777653319 | 22.22° C | 35% | 1025.4 hPa | 0 mm | - | - | - |
| 1777652719 | 22.78° C | 34% | 1025.5 hPa | 0 mm | - | - | - |
| 1777652119 | 22.78° C | 35% | 1025.6 hPa | 0 mm | - | - | - |
| 1777651519 | 22.78° C | 35% | 1025.7 hPa | 0 mm | - | - | - |
| 1777650919 | 22.78° C | 35% | 1025.8 hPa | 0 mm | - | - | - |
| 1777650319 | 22.78° C | 35% | 1025.9 hPa | 0 mm | - | - | - |
| 1777649719 | 22.22° C | 35% | 1025.8 hPa | 0 mm | - | - | - |
| 1777649119 | 22.78° C | 35% | 1026 hPa | 0 mm | - | - | - |
| 1777648519 | 22.78° C | 35% | 1025.9 hPa | 0 mm | - | - | - |
| 1777647920 | 22.78° C | 35% | 1026.2 hPa | 0 mm | - | - | - |
| 1777647320 | 22.78° C | 35% | 1026.4 hPa | 0 mm | - | - | - |
| 1777646720 | 23.33° C | 35% | 1026.4 hPa | 0 mm | - | - | - |
| 1777646120 | 23.33° C | 36% | 1026.6 hPa | 0 mm | - | - | - |
| 1777645520 | 23.33° C | 35% | 1026.7 hPa | 0 mm | - | - | - |
| 1777644920 | 23.89° C | 34% | 1026.7 hPa | 0 mm | - | - | - |
| 1777644320 | 24.44° C | 34% | 1026.8 hPa | 0 mm | - | - | - |
| 1777643720 | 24.44° C | 34% | 1027 hPa | 0 mm | - | - | - |
* Rain latest hour (hover to see other rain measurements)
** Current wind speed in m/s (hover to see current wind gust speed)